Regional Weather Roundup
Issued by NWS Columbia, SC

Home | Current Version | Previous Version | Text Only | Print | Product List | Glossary On
Versions: 1 2 3 4 5 6 7 8 9 10 11 12 13 14 15 16 17 18 19 20 21 22 23 24 25 26 27 28
000
ASUS42 KCAE 310610
RWRCAE
REGIONAL WEATHER ROUNDUP
NATIONAL WEATHER SERVICE COLUMBIA SC
200 AM EDT SAT JUL 31 2021

NOTE: "FAIR" INDICATES FEW OR NO CLOUDS BELOW 12,000 FEET WITH NO
SIGNIFICANT WEATHER AND/OR OBSTRUCTIONS TO VISIBILITY.

NOT ALL STATIONS ARE QUALITY CONTROLLED BY THE NATIONAL
WEATHER SERVICE. USE DATA WITH CAUTION...ESPECIALLY
DEWPOINT OBSERVATIONS.

SCZ001>059-115-116-135>137-GAZ040-063>065-077-310700-
...UPSTATE SOUTH CAROLINA...

CITY           SKY/WX    TMP DP  RH WIND       PRES   REMARKS
ANDERSON       PTCLDY    77  76  96 CALM      29.97S
6HR MIN TEMP:  77; 6HR MAX TEMP:  86; 6HR PCP: TRACE;

LIBERTY        PTCLDY    75  74  98 NW3       29.98S
6HR MIN TEMP:  74; 6HR MAX TEMP:  86;

SPARTANBURG    CLEAR     77  70  78 CALM      29.97S
CLEMSON        PTCLDY    78  76  93 NW5       29.98F
6HR MIN TEMP:  78; 6HR MAX TEMP:  85;

GREENVILLE     PTCLDY    81  68  64 N7        29.99S
6HR MIN TEMP:  81; 6HR MAX TEMP:  89;

GREENWOOD      PTCLDY    76  75  97 CALM      29.97F
6HR MIN TEMP:  75; 6HR MAX TEMP:  84;

GREER          CLEAR     77  69  76 CALM      29.98F
6HR MIN TEMP:  76; 6HR MAX TEMP:  86;

ROCK HILL      CLEAR     75  72  90 CALM      29.96F
6HR MIN TEMP:  75; 6HR MAX TEMP:  86;

LAURENS        PTCLDY    77  73  88 CALM      29.97S


...CENTRAL SOUTH CAROLINA...

CITY           SKY/WX    TMP DP  RH WIND       PRES   REMARKS
COLUMBIA APT   PTCLDY    80  76  87 CALM      29.93F
6HR MIN TEMP:  79; 6HR MAX TEMP:  90;

COLUMBIA OWENS PTCLDY    80  77  90 CALM      29.94F
6HR MIN TEMP:  80; 6HR MAX TEMP:  92;

MCENTIRE ANGB  CLEAR     76  76 100 CALM      29.92F FOG
6HR MIN TEMP:  76; 6HR MAX TEMP:  89;

ORANGEBURG     CLEAR     79  77  94 CALM      29.95F
6HR MIN TEMP:  78; 6HR MAX TEMP:  87;

SUMTER SHAW    CLEAR     81  75  81 CALM      29.92F
6HR MIN TEMP:  81; 6HR MAX TEMP:  89;

AIKEN          FAIR      78  75  89 CALM      29.97F
6HR MIN TEMP:  78; 6HR MAX TEMP:  89;

BARNWELL       MOCLDY    81  75  83 CALM      29.95F
MANNING        FAIR      81  79  94 CALM      29.94F
CAMDEN         FAIR      77  77 100 CALM      29.94F
LANCASTER        N/A     75  73  94 CALM      29.95F FOG
WINNSBORO      CLEAR     77  73  88 CALM      29.95F


...EASTERN AND COASTAL SOUTH CAROLINA...

CITY           SKY/WX    TMP DP  RH WIND       PRES   REMARKS
MYRTLE BEACH   PTCLDY    82  79  90 SW7       29.94F
6HR MIN TEMP:  82; 6HR MAX TEMP:  84;

N MYRTLE BCH   CLEAR     82  77  84 SW9       29.93F
6HR MIN TEMP:  82; 6HR MAX TEMP:  83;

CONWAY         FAIR      79  77  94 SW5       29.93F
MARION         FAIR      79  79 100 SW5       29.93S
HARTSVILLE     FAIR      77  75  94 CALM      29.94S
FLORENCE       CLEAR     81  75  82 CALM      29.93F
6HR MIN TEMP:  81; 6HR MAX TEMP:  89;

DARLINGTON     CLEAR     76  76 100 CALM      29.93F
6HR MIN TEMP:  76; 6HR MAX TEMP:  87;

CHARLESTON APT PTCLDY    81  79  94 S7        29.94F
6HR MIN TEMP:  80; 6HR MAX TEMP:  84;

MOUNT PLEASANT CLOUDY    82  82 100 CALM      29.95S HX  97
WALTERBORO     MOCLDY    81  79  94 SW5       29.96F
BEAUFORT       CLEAR     84  79  85 S6        29.96F HX  96
6HR MIN TEMP:  84; 6HR MAX TEMP:  88;

HILTON HEAD    CLEAR     84  79  84 CALM      29.97F HX  96


...EASTERN GEORGIA...

CITY           SKY/WX    TMP DP  RH WIND       PRES   REMARKS
AUGUSTA BUSH F CLEAR     79  76  90 CALM      29.93F
6HR MIN TEMP:  79; 6HR MAX TEMP:  89; 6HR PCP:  0.02;

AUGUSTA DANIEL CLEAR     84  76  76 W3        29.96F
6HR MIN TEMP:  84; 6HR MAX TEMP:  92; 6HR PCP: TRACE;

THOMSON        PTCLDY    79  78  95 W3        29.97F
6HR MIN TEMP:  79; 6HR MAX TEMP:  90;

WASHINGTON     FAIR      77  75  95 CALM      29.97F
6HR MIN TEMP:  77; 6HR MAX TEMP:  86;

CLAXTON        FAIR      79  78  96 CALM      29.97F FOG
6HR MIN TEMP:  79; 6HR MAX TEMP:  87;

SYLVANIA       CLEAR     80  75  85 CALM      29.97F
6HR MIN TEMP:  79; 6HR MAX TEMP:  90;

STATESBORO     PTCLDY    80  73  79 CALM      29.97S
6HR MIN TEMP:  78; 6HR MAX TEMP:  88;

SAVANNAH       CLEAR     81  76  84 SW3       29.97F
6HR MIN TEMP:  81; 6HR MAX TEMP:  90;



...SOUTHERN NORTH CAROLINA...

CITY           SKY/WX    TMP DP  RH WIND       PRES   REMARKS
CHARLOTTE      PTCLDY    75  73  93 N5        29.97S
6HR MIN TEMP:  74; 6HR MAX TEMP:  87;

MONROE         CLEAR     76  72  87 CALM      29.95S
6HR MIN TEMP:  76; 6HR MAX TEMP:  87;

WADESBORO      CLEAR     74  72  92 CALM      29.93F
6HR MIN TEMP:  74; 6HR MAX TEMP:  90;

ROCKINGHAM     CLEAR     77  75  92 CALM      29.94S
6HR MIN TEMP:  77; 6HR MAX TEMP:  89;

ASHEVILLE      CLEAR     69  67  93 CALM      30.08S
6HR MIN TEMP:  69; 6HR MAX TEMP:  83;


$$



USA.gov is the U.S. government's official web portal to all federal, state and local government web resources and services.